Location: Gorze? G�rny
(49.8500°N, 19.5000°E)
Time: 05:22:02
(UTC+00:00)

Cosmos 1833 Rocket - Pass Details

Date: 13 May 2021
Orbit: 831 x 841 km, 71.0° (Epoch: 20 June)

Event Time Altitude Azimuth Distance (km) Brightness Sun altitude
Rises 20:23:01 0° 324° (NW) 3,407 7.8 -15.3°
Reaches altitude 10° 20:25:44 10° 314° (NW) 2,468 6.4 -15.5°
Maximum altitude 20:30:33 30° 255° (WSW) 1,479 4.1 -15.9°
Enters shadow 20:34:59 12° 199° (SSW) 2,338 4.6 -16.3°
